Weather in Sizim

Russia / Tyva Republic     51°19′03″N   95°56′37″E
temp.,
°C
wind,
m/s
gust,
m/s
humid.,
%
clouds,
%
prec.,
mm/h
press.,
hPa
HPBL,
m
5 march, fri
fri501:00−17ese22900 0.0 103520
04:00−19ese22920 0.0 103525
07:00−21e22924 0.0 103529
10:00−13e238141 0.0 1031250
13:00−6ene237438 0.0 1027440
16:00−3ne227976 0.0 1024388
19:00−8e019388 0.0 102721
22:00−9w2296100 0.0 103023
6 march, sat
sat601:00−13wnw119696 0.0 103420
04:00−15se119388 0.0 103620
07:00−16ese229272 0.0 103820
10:00−8e12840 0.0 1034278
13:00−2ne22793 0.0 1030529
16:00−1nne118338 0.0 1026441
19:00−9e119525 0.0 102821
22:00−11se12890 0.0 102821
7 march, sun
sun701:00−14ese22850 0.0 102820
04:00−15ese22871 0.0 102820
07:00−17e22878 0.0 102920
10:00−9ene127627 0.0 1027238
13:00−4ne117552 0.0 1025351
16:00−2n117850 0.0 1024411
19:00−7wsw119075 0.0 102621
22:00−10wsw0094100 0.0 102921
8 march, mon
mon801:00−13s009780 0.0 103021
04:00−13ese119463 0.0 103021
07:00−14ese229480 0.0 103220
10:00−7e128378 0.0 1029253
13:00−1ene227847 0.0 1026504
16:000ne12820 0.0 1023374
19:00−7ese11920 0.0 102521
22:00−9ese11931 0.0 102721
9 march, tue
tue901:00−11ese119129 0.0 102621
04:00−12ese118986 0.0 102721
07:00−12e018990 0.0 103021
10:00−6ssw0178100 0.0 1030224
13:00−2nnw117893 0.0 1029469
16:00−1nw11780 0.0 1027468
19:00−8w009118 0.0 103021
22:00−10ese11930 0.0 103121